Weather History for North Island, CA

Change the Weather History Date:

Wednesday, February 13, 2013

  Actual Average Record
Temperature  
Mean Temperature 54 °F -  
Max Temperature 63 °F 61 °F 82 °F (2014)
Min Temperature 44 °F 48 °F 44 °F (1999)
Degree Days  
Heating Degree Days 12    
Growing Degree Days 4 (Base 50)    
Moisture  
Dew Point 43 °F    
Average Humidity 67    
Maximum Humidity 83    
Minimum Humidity 46    
Precipitation  
Precipitation 0.00 in - - ()
Sea Level Pressure  
Sea Level Pressure 30.20 in    
Wind  
Wind Speed 3 mph (NW)    
Max Wind Speed 13 mph    
Max Gust Speed -    
Visibility 10 miles    
Events      
Averages and records for this station are not official NWS values.
T = Trace of Precipitation, MM = Missing Value Source: NWS Daily Summary

Daily Weather History Graph

Daily Weather History Graph

Search for Another Location

Airport:

Trip Planner

Search our weather history database for the weather conditions in past years. The results will help you decide how hot, cold, wet, or windy it might be!

Date:

Astronomy

Feb. 13, 2013 Rise Set
Actual Time 6:33 AM PST 5:33 PM PST
Civil Twilight 6:08 AM PST 5:58 PM PST
Nautical Twilight 5:39 AM PST 6:27 PM PST
Astronomical Twilight 5:10 AM PST 6:55 PM PST
Moon 8:20 AM PST (2/13) 9:23 PM PST (2/13)
Length of Visible Light 11h 50m
Length of Day
10h 59m
Waxing Crescent, 14% of the Moon is Illuminated
Feb 13
Waxing Crescent
Feb 17
First Quarter
Feb 25
Full
Mar 4
Last Quarter
Mar 11
New

Hourly Weather History & Observations

Time (PST) Temp. Windchill Dew Point Humidity Pressure Visibility Wind Dir Wind Speed Gust Speed Precip Events Conditions
12:52 AM 48.0 °F - 43.0 °F 83% 30.25 in 10.0 mi Calm Calm - N/A   Clear
1:52 AM 46.9 °F - 39.9 °F 77% 30.24 in 10.0 mi East 3.5 mph - N/A   Clear
2:52 AM 46.9 °F - 36.0 °F 66% 30.24 in 10.0 mi East 4.6 mph - N/A   Clear
3:52 AM 46.0 °F 44.8 °F 36.0 °F 68% 30.24 in 10.0 mi East 3.5 mph - N/A   Clear
4:52 AM 45.0 °F - 34.0 °F 65% 30.23 in 10.0 mi Calm Calm - N/A   Clear
5:52 AM 46.0 °F - 34.0 °F 63% 30.23 in 10.0 mi Calm Calm - N/A   Clear
6:52 AM 44.1 °F - 32.0 °F 63% 30.25 in 10.0 mi Calm Calm - N/A   Clear
7:52 AM 50.0 °F - 37.9 °F 63% 30.25 in 10.0 mi Calm Calm - N/A   Clear
8:52 AM 55.0 °F - 39.0 °F 55% 30.26 in 10.0 mi Calm Calm - N/A   Clear
9:52 AM 57.9 °F - 39.0 °F 49% 30.25 in 10.0 mi South 3.5 mph - N/A   Clear
10:52 AM 62.1 °F - 41.0 °F 46% 30.25 in 10.0 mi WSW 5.8 mph - N/A   Clear
11:52 AM 63.0 °F - 42.1 °F 46% 30.22 in 10.0 mi WNW 9.2 mph - N/A   Clear
12:52 PM 63.0 °F - 46.9 °F 56% 30.19 in 10.0 mi WNW 12.7 mph - N/A   Clear
1:52 PM 62.1 °F - 46.9 °F 58% 30.18 in 10.0 mi West 9.2 mph - N/A   Clear
2:52 PM 61.0 °F - 48.9 °F 64% 30.16 in 10.0 mi NW 8.1 mph - N/A   Partly Cloudy
3:52 PM 61.0 °F - 48.9 °F 64% 30.15 in 10.0 mi WNW 8.1 mph - N/A   Partly Cloudy
4:52 PM 59.0 °F - 48.9 °F 69% 30.14 in 10.0 mi NW 10.4 mph - N/A   Partly Cloudy
5:52 PM 57.0 °F - 50.0 °F 77% 30.15 in 10.0 mi NW 8.1 mph - N/A   Partly Cloudy
6:52 PM 57.0 °F - 50.0 °F 77% 30.16 in 10.0 mi NNW 6.9 mph - N/A   Scattered Clouds
7:52 PM 57.0 °F - 50.0 °F 77% 30.17 in 9.0 mi North 6.9 mph - N/A   Scattered Clouds
8:52 PM 55.9 °F - 48.9 °F 77% 30.16 in 8.0 mi North 5.8 mph - N/A   Partly Cloudy
9:52 PM 53.1 °F - 48.0 °F 83% 30.17 in 7.0 mi Calm Calm - N/A   Partly Cloudy
10:52 PM 52.0 °F - 46.9 °F 83% 30.18 in 7.0 mi Calm Calm - N/A   Partly Cloudy
11:52 PM 52.0 °F - 46.0 °F 80% 30.17 in 7.0 mi Calm Calm - N/A   Partly Cloudy